TimeCDT,TemperatureF,Dew PointF,Humidity,Sea Level PressureIn,VisibilityMPH,Wind Direction,Wind SpeedMPH,Gust SpeedMPH,PrecipitationIn,Events,Conditions,WindDirDegrees,DateUTC
12:53 AM,39.9,35.1,83,30.17,10.0,SE,3.5,-,N/A,,Unknown,140,2013-10-09 05:53:00
1:53 AM,48.9,46.9,93,30.16,10.0,SE,3.5,-,N/A,,Unknown,130,2013-10-09 06:53:00
2:53 AM,50.0,45.0,83,30.15,10.0,SE,3.5,-,N/A,,Unknown,130,2013-10-09 07:53:00
3:53 AM,48.9,45.0,86,30.15,10.0,Calm,Calm,-,N/A,,Clear,0,2013-10-09 08:53:00
4:53 AM,48.9,45.0,86,30.17,10.0,Calm,Calm,-,N/A,,Clear,0,2013-10-09 09:53:00
5:53 AM,45.0,43.0,93,30.18,10.0,NNE,3.5,-,N/A,,Clear,20,2013-10-09 10:53:00
6:53 AM,44.1,42.1,93,30.20,10.0,North,3.5,-,N/A,,Clear,10,2013-10-09 11:53:00
7:53 AM,46.0,43.0,89,30.22,10.0,Calm,Calm,-,N/A,,Clear,0,2013-10-09 12:53:00
8:53 AM,53.1,48.0,83,30.22,10.0,Calm,Calm,-,N/A,,Clear,0,2013-10-09 13:53:00
9:53 AM,60.1,48.9,67,30.22,10.0,SE,4.6,-,N/A,,Clear,130,2013-10-09 14:53:00
10:53 AM,64.0,48.9,58,30.21,10.0,Variable,3.5,-,N/A,,Clear,0,2013-10-09 15:53:00
11:53 AM,68.0,48.0,49,30.20,10.0,Calm,Calm,-,N/A,,Clear,0,2013-10-09 16:53:00
12:53 PM,71.1,46.9,42,30.18,10.0,SE,5.8,-,N/A,,Clear,130,2013-10-09 17:53:00
1:53 PM,73.0,48.0,41,30.15,10.0,ESE,9.2,-,N/A,,Clear,120,2013-10-09 18:53:00
2:53 PM,73.0,46.9,39,30.14,10.0,SSE,5.8,-,N/A,,Clear,150,2013-10-09 19:53:00
3:53 PM,73.0,46.9,39,30.13,10.0,Calm,Calm,-,N/A,,Clear,0,2013-10-09 20:53:00
4:53 PM,73.0,48.0,41,30.13,10.0,SE,5.8,-,N/A,,Clear,130,2013-10-09 21:53:00
5:53 PM,68.0,50.0,52,30.13,10.0,ESE,3.5,-,N/A,,Clear,120,2013-10-09 22:53:00
6:53 PM,64.0,53.1,67,30.13,10.0,Calm,Calm,-,N/A,,Clear,0,2013-10-09 23:53:00
7:53 PM,61.0,54.0,78,30.13,10.0,Calm,Calm,-,N/A,,Clear,0,2013-10-10 00:53:00
8:53 PM,60.1,53.1,78,30.14,10.0,Calm,Calm,-,N/A,,Clear,0,2013-10-10 01:53:00
9:53 PM,57.9,51.1,78,30.14,10.0,SSE,3.5,-,N/A,,Clear,150,2013-10-10 02:53:00
10:53 PM,55.9,51.1,84,30.13,10.0,SSE,3.5,-,N/A,,Clear,160,2013-10-10 03:53:00
11:53 PM,57.0,54.0,89,30.13,10.0,South,3.5,-,N/A,,Clear,170,2013-10-10 04:53:00